GW5221 Weather Reports


Display with metric or nautical units.
time (UTC)temp
F
wind
direction
speed
MPH
gust
MPH
rain 1hr
in
rain 24hr
in
rain mn
in
humidity
%
barometer
mb
20260906100732 83 332 0.0 4.0 0.00 0.00 0.00 85
20260906100231 83 340 2.0 3.0 0.00 0.00 0.00 85
20260906095727 83 334 1.0 2.0 0.00 0.00 0.00 85
20260906095222 83 188 1.0 2.0 0.00 0.00 0.00 85
20260906094720 83 215 1.0 2.0 0.00 0.00 0.00 85
20260906094210 83 297 1.0 2.0 0.00 0.00 0.00 85
20260906093707 83 292 0.0 1.0 0.00 0.00 0.00 86
20260906093201 83 104 1.0 2.0 0.00 0.00 0.00 86
20260906092657 83 43 1.0 2.0 0.00 0.00 0.00 86
20260906092156 83 17 0.0 1.0 0.00 0.00 0.00 85
20260906091652 83 321 0.0 2.0 0.00 0.00 0.00 85
20260906091148 83 346 0.0 1.0 0.00 0.00 0.00 85
20260906090644 83 349 0.0 1.0 0.00 0.00 0.00 85
20260906090143 83 16 1.0 1.0 0.00 0.00 0.00 85
20260906085642 83 343 1.0 3.0 0.00 0.00 0.00 85
20260906085137 83 329 0.0 2.0 0.00 0.00 0.00 84
20260906084637 83 340 1.0 2.0 0.00 0.00 0.00 84
20260906084137 83 337 1.0 1.0 0.00 0.00 0.00 84
20260906083632 83 347 0.0 1.0 0.00 0.00 0.00 84
20260906083126 83 0 1.0 2.0 0.00 0.00 0.00 84
20260906082622 83 348 0.0 6.0 0.00 0.00 0.00 84
20260906082117 83 340 0.0 2.0 0.00 0.00 0.00 84
20260906081613 83 16 1.0 2.0 0.00 0.00 0.00 84
20260906081103 83 327 1.0 2.0 0.00 0.00 0.00 84
20260906080600 83 296 1.0 2.0 0.00 0.00 0.00 83
20260906080055 83 326 2.0 3.0 0.00 0.00 0.00 83
20260906075554 83 346 0.0 2.0 0.00 0.00 0.00 83
20260906075049 83 199 1.0 2.0 0.00 0.00 0.00 83
20260906074544 83 344 1.0 3.0 0.00 0.00 0.00 83
20260906074043 83 352 2.0 3.0 0.00 0.00 0.00 83
20260906073538 83 38 1.0 4.0 0.00 0.00 0.00 83
20260906073034 83 329 0.0 1.0 0.00 0.00 0.00 83
20260906072529 83 339 1.0 6.0 0.00 0.00 0.00 83
20260906072025 83 358 1.0 2.0 0.00 0.00 0.00 83
20260906071521 83 339 1.0 3.0 0.00 0.00 0.00 83
20260906071016 83 233 2.0 3.0 0.00 0.00 0.00 83
20260906070512 83 213 2.0 4.0 0.00 0.00 0.00 83
20260906070008 83 293 1.0 3.0 0.00 0.00 0.00 83
20260906065507 83 24 1.0 4.0 0.00 0.00 0.00 83
20260906065003 83 87 2.0 4.0 0.00 0.00 0.00 84
20260906064459 83 345 1.0 4.0 0.00 0.00 0.00 84
20260906063953 83 347 2.0 3.0 0.00 0.00 0.00 84
20260906063449 83 334 3.0 4.0 0.00 0.00 0.00 84
20260906062949 83 190 2.0 3.0 0.00 0.00 0.00 85
20260906062444 83 359 1.0 2.0 0.00 0.00 0.00 85
20260906061939 83 43 2.0 2.0 0.00 0.00 0.00 85
20260906061435 83 69 2.0 6.0 0.00 0.00 0.00 85
20260906060929 83 356 1.0 3.0 0.00 0.00 0.00 85
20260906060426 83 52 1.0 8.0 0.00 0.00 0.00 85
20260906055923 83 282 1.0 2.0 0.00 0.00 0.00 85
20260906055418 83 21 1.0 7.0 0.00 0.00 0.00 85
20260906054913 83 334 1.0 3.0 0.00 0.00 0.00 85
20260906054408 83 78 0.0 1.0 0.00 0.00 0.00 85
20260906053904 83 321 1.0 2.0 0.00 0.00 0.00 85
20260906053400 83 345 0.0 3.0 0.00 0.00 0.00 85
20260906052855 83 26 1.0 2.0 0.00 0.00 0.00 85
20260906052352 83 116 2.0 4.0 0.00 0.00 0.00 85
20260906051848 83 30 1.0 3.0 0.00 0.00 0.00 85
20260906051348 83 2 1.0 3.0 0.00 0.00 0.00 85
20260906050844 83 30 2.0 2.0 0.00 0.00 0.00 85
20260906050339 83 20 2.0 3.0 0.00 0.00 0.00 85
20260906045837 83 3 2.0 6.0 0.00 0.00 0.00 84
20260906045332 84 305 0.0 2.0 0.00 0.00 0.00 84
20260906044828 84 326 0.0 8.0 0.00 0.00 0.00 84
20260906044323 84 344 2.0 4.0 0.00 0.00 0.00 84
20260906043819 84 244 1.0 3.0 0.00 0.00 0.00 84
20260906043315 84 359 1.0 2.0 0.00 0.00 0.00 84
20260906042814 84 78 2.0 3.0 0.00 0.00 0.00 84
20260906042313 84 3 1.0 4.0 0.00 0.00 0.00 83
20260906041809 84 74 1.0 4.0 0.00 0.00 0.00 83
20260906041304 84 107 0.0 3.0 0.00 0.00 0.00 83
20260906040759 84 119 2.0 6.0 0.00 0.00 0.00 83
20260906040255 84 23 1.0 7.0 0.00 0.00 0.00 83
20260906035750 84 4 2.0 4.0 0.00 0.00 0.00 83
20260906035246 84 332 2.0 3.0 0.00 0.00 0.00 83
20260906034745 84 139 1.0 6.0 0.00 0.00 0.00 83
20260906034240 84 15 2.0 4.0 0.00 0.00 0.00 83
20260906033736 84 356 0.0 4.0 0.00 0.00 0.00 83
20260906033235 84 19 1.0 2.0 0.00 0.00 0.00 83
20260906032732 84 337 2.0 4.0 0.00 0.00 0.00 83
20260906032232 84 69 3.0 4.0 0.00 0.00 0.00 83
20260906031727 84 355 1.0 4.0 0.00 0.00 0.00 83
20260906031223 84 66 1.0 4.0 0.00 0.00 0.00 83
20260906030723 84 7 1.0 3.0 0.00 0.00 0.00 82
20260906030218 84 10 1.0 4.0 0.00 0.00 0.00 82
20260906025717 84 4 3.0 4.0 0.00 0.00 0.00 82
20260906025212 84 104 1.0 4.0 0.00 0.00 0.00 82
20260906024711 84 19 2.0 3.0 0.00 0.00 0.00 82
20260906024210 84 335 1.0 3.0 0.00 0.00 0.00 81
20260906023707 84 51 3.0 7.0 0.00 0.00 0.00 81
20260906023207 84 106 2.0 4.0 0.00 0.00 0.00 81
20260906022702 84 21 0.0 3.0 0.00 0.00 0.00 81
20260906022157 84 355 2.0 4.0 0.00 0.00 0.00 81
20260906021653 85 306 3.0 6.0 0.00 0.00 0.00 80
20260906021151 85 31 2.0 3.0 0.00 0.00 0.00 80
20260906020646 85 350 1.0 6.0 0.00 0.00 0.00 80
20260906020142 85 10 4.0 9.0 0.00 0.00 0.00 79
20260906015636 85 15 1.0 4.0 0.00 0.00 0.00 79
20260906015135 85 56 2.0 6.0 0.00 0.00 0.00 79
20260906014634 85 350 2.0 2.0 0.00 0.00 0.00 79
20260906014130 85 359 2.0 4.0 0.00 0.00 0.00 79
20260906013626 85 27 4.0 10.0 0.00 0.00 0.00 78
20260906013121 85 1 2.0 7.0 0.00 0.00 0.00 78
20260906012616 85 337 0.0 2.0 0.00 0.00 0.00 78
20260906012116 85 77 3.0 7.0 0.00 0.00 0.00 78
20260906011613 85 16 1.0 3.0 0.00 0.00 0.00 78
20260906011112 85 93 3.0 6.0 0.00 0.00 0.00 78
20260906010608 85 359 2.0 6.0 0.00 0.00 0.00 78
20260906010104 85 98 4.0 4.0 0.00 0.00 0.00 78
20260906005603 85 19 2.0 6.0 0.00 0.00 0.00 77
20260906005102 85 42 6.0 8.0 0.00 0.00 0.00 77
20260906004602 85 23 3.0 7.0 0.00 0.00 0.00 77
20260906004057 85 353 3.0 4.0 0.00 0.00 0.00 77
20260906003552 85 12 2.0 4.0 0.00 0.00 0.00 77
20260906003048 85 1 3.0 7.0 0.00 0.00 0.00 76
20260906002542 85 223 1.0 3.0 0.00 0.00 0.00 77
20260906002037 85 356 2.0 6.0 0.00 0.00 0.00 77
20260906001533 85 83 2.0 7.0 0.00 0.00 0.00 77
20260906001027 85 324 2.0 4.0 0.00 0.00 0.00 77
20260906000523 85 63 2.0 3.0 0.00 0.00 0.00 78
20260906000018 85 356 1.0 2.0 0.00 0.00 0.00 78
20260905235511 85 349 1.0 4.0 0.00 0.00 0.00 78
20260905235006 85 11 4.0 8.0 0.00 0.00 0.00 79
20260905234503 85 24 1.0 4.0 0.00 0.00 0.00 79
20260905233956 85 34 3.0 8.0 0.00 0.00 0.00 79
20260905233452 85 139 2.0 9.0 0.00 0.00 0.00 79
20260905232950 85 45 5.0 7.0 0.00 0.00 0.00 78
20260905232447 85 66 4.0 6.0 0.00 0.00 0.00 79
20260905231942 85 15 1.0 4.0 0.00 0.00 0.00 79
20260905231438 86 108 2.0 3.0 0.00 0.00 0.00 79
20260905230934 86 346 1.0 4.0 0.00 0.00 0.00 79
20260905230432 86 341 2.0 6.0 0.00 0.00 0.00 79
20260905225931 86 352 1.0 4.0 0.00 0.00 0.00 78
20260905225426 86 336 2.0 7.0 0.00 0.00 0.00 78
20260905224921 86 63 1.0 8.0 0.00 0.00 0.00 78
20260905224417 86 67 2.0 3.0 0.00 0.00 0.00 77
20260905223911 86 334 1.0 9.0 0.00 0.00 0.00 77
20260905223409 86 59 2.0 6.0 0.00 0.00 0.00 77
20260905222908 86 74 2.0 9.0 0.00 0.00 0.00 77
20260905222408 86 9 3.0 9.0 0.00 0.00 0.00 76
20260905221904 86 3 1.0 4.0 0.00 0.00 0.00 76
20260905221400 86 28 5.0 8.0 0.00 0.00 0.00 76
20260905220856 87 307 3.0 9.0 0.00 0.00 0.00 75
20260905220352 87 66 2.0 7.0 0.00 0.00 0.00 75
20260905215851 87 75 6.0 13.0 0.00 0.00 0.00 74
20260905215347 87 36 6.0 9.0 0.00 0.00 0.00 74
20260905214843 88 27 3.0 6.0 0.00 0.00 0.00 74
20260905214338 88 28 2.0 7.0 0.00 0.00 0.00 74
20260905213827 88 344 2.0 4.0 0.00 0.00 0.00 75
20260905213324 88 9 2.0 7.0 0.00 0.00 0.00 75
20260905212818 88 4 1.0 6.0 0.00 0.00 0.00 74
20260905212313 88 128 1.0 4.0 0.00 0.00 0.00 73
20260905211813 88 46 2.0 4.0 0.00 0.00 0.00 73
20260905211308 89 108 2.0 7.0 0.00 0.00 0.00 71
20260905210804 89 353 3.0 4.0 0.00 0.00 0.00 69
20260905210304 90 146 4.0 8.0 0.00 0.00 0.00 68
20260905205802 90 321 1.0 4.0 0.00 0.00 0.00 67
20260905205257 90 259 3.0 8.0 0.00 0.00 0.00 67
20260905204756 91 43 3.0 8.0 0.00 0.00 0.00 66
20260905204253 91 94 3.0 9.0 0.00 0.00 0.00 64
20260905203752 91 175 2.0 4.0 0.00 0.00 0.00 64
20260905203247 91 324 2.0 8.0 0.00 0.00 0.00 64
20260905202743 91 104 5.0 7.0 0.00 0.00 0.00 64
20260905202238 91 37 2.0 10.0 0.00 0.00 0.00 64
20260905201733 91 301 3.0 6.0 0.00 0.00 0.00 65
20260905201228 92 348 2.0 8.0 0.00 0.00 0.00 63
20260905200723 91 358 2.0 4.0 0.00 0.00 0.00 65
20260905200219 91 60 4.0 10.0 0.00 0.00 0.00 64
20260905195718 91 309 3.0 6.0 0.00 0.00 0.00 65
20260905195218 92 94 2.0 6.0 0.00 0.00 0.00 64
20260905194714 92 306 4.0 8.0 0.00 0.00 0.00 64
20260905194213 91 2 3.0 8.0 0.00 0.00 0.00 66
20260905193707 92 31 4.0 7.0 0.00 0.00 0.00 65
20260905193202 92 119 2.0 6.0 0.00 0.00 0.00 63
20260905192658 92 350 3.0 6.0 0.00 0.00 0.00 63
20260905192154 92 26 4.0 8.0 0.00 0.00 0.00 63
20260905191654 92 331 4.0 7.0 0.00 0.00 0.00 64
20260905191151 93 106 2.0 7.0 0.00 0.00 0.00 63
20260905190650 93 227 3.0 7.0 0.00 0.00 0.00 63
20260905190149 93 348 2.0 8.0 0.00 0.00 0.00 64
20260905185648 93 110 3.0 9.0 0.00 0.00 0.00 63
20260905185144 93 344 5.0 9.0 0.00 0.00 0.00 62
20260905184643 94 349 3.0 7.0 0.00 0.00 0.00 61
20260905184142 93 323 2.0 6.0 0.00 0.00 0.00 61
20260905183641 93 13 4.0 7.0 0.00 0.00 0.00 61
20260905183137 94 294 4.0 8.0 0.00 0.00 0.00 61
20260905182636 94 16 4.0 7.0 0.00 0.00 0.00 60
20260905182136 93 359 2.0 4.0 0.00 0.00 0.00 63
20260905181631 92 100 2.0 4.0 0.00 0.00 0.00 65
20260905181130 91 148 3.0 7.0 0.00 0.00 0.00 69
20260905180625 91 319 4.0 7.0 0.00 0.00 0.00 71
20260905180121 90 199 2.0 4.0 0.00 0.00 0.00 71
20260905175620 90 275 4.0 8.0 0.00 0.00 0.00 71
20260905175115 90 263 3.0 6.0 0.00 0.00 0.00 72
20260905174611 90 216 6.0 8.0 0.00 0.00 0.00 72
20260905174106 90 184 4.0 10.0 0.00 0.00 0.00 72
20260905173603 90 296 4.0 8.0 0.00 0.00 0.00 71
20260905173058 90 183 4.0 7.0 0.00 0.00 0.00 73
20260905172556 90 227 4.0 8.0 0.00 0.00 0.00 72
20260905172052 89 217 4.0 8.0 0.00 0.00 0.00 73
20260905171548 89 35 3.0 7.0 0.00 0.00 0.00 74
20260905171044 90 164 2.0 6.0 0.00 0.00 0.00 74
20260905170541 90 121 4.0 7.0 0.00 0.00 0.00 73
20260905170036 90 15 4.0 13.0 0.00 0.00 0.00 72
20260905165531 90 137 4.0 9.0 0.00 0.00 0.00 73
20260905165026 90 63 3.0 8.0 0.00 0.00 0.00 72
20260905164525 90 219 4.0 9.0 0.00 0.00 0.00 72
20260905164020 90 189 5.0 8.0 0.00 0.00 0.00 73
20260905163516 89 98 2.0 8.0 0.00 0.00 0.00 74
20260905163012 89 249 1.0 9.0 0.00 0.00 0.00 74
20260905162508 89 187 4.0 8.0 0.00 0.00 0.00 74
20260905162002 89 326 3.0 7.0 0.00 0.00 0.00 74
20260905161502 89 179 1.0 4.0 0.00 0.00 0.00 74
20260905161000 89 77 4.0 7.0 0.00 0.00 0.00 73
20260905160453 91 231 3.0 8.0 0.00 0.00 0.00 69
20260905155953 91 22 2.0 8.0 0.00 0.00 0.00 70
20260905155448 91 158 4.0 7.0 0.00 0.00 0.00 68
20260905154947 91 188 2.0 6.0 0.00 0.00 0.00 69
20260905154442 90 350 2.0 7.0 0.00 0.00 0.00 69
20260905153938 90 29 1.0 6.0 0.00 0.00 0.00 70
20260905153434 89 268 4.0 7.0 0.00 0.00 0.00 71
20260905152933 89 286 2.0 8.0 0.00 0.00 0.00 71
20260905152433 89 237 6.0 8.0 0.00 0.00 0.00 71
20260905151928 89 330 1.0 7.0 0.00 0.00 0.00 72
20260905151424 89 335 1.0 4.0 0.00 0.00 0.00 73
20260905150924 89 29 4.0 10.0 0.00 0.00 0.00 73
20260905150424 89 23 2.0 7.0 0.00 0.00 0.00 72
20260905145920 89 141 2.0 6.0 0.00 0.00 0.00 73
20260905145416 88 342 1.0 3.0 0.00 0.00 0.00 74
20260905144915 88 66 3.0 7.0 0.00 0.00 0.00 74
20260905144411 88 136 4.0 8.0 0.00 0.00 0.00 74
20260905143910 88 235 2.0 4.0 0.00 0.00 0.00 74
20260905143404 88 329 2.0 4.0 0.00 0.00 0.00 74
20260905142903 88 230 4.0 7.0 0.00 0.00 0.00 73
20260905142402 89 1 1.0 4.0 0.00 0.00 0.00 72
20260905141858 89 207 5.0 7.0 0.00 0.00 0.00 71
20260905141353 90 60 3.0 9.0 0.00 0.00 0.00 71
20260905140849 89 206 6.0 9.0 0.00 0.00 0.00 72
20260905140349 89 118 5.0 8.0 0.00 0.00 0.00 72
20260905135848 89 337 1.0 3.0 0.00 0.00 0.00 73
20260905135344 89 353 2.0 4.0 0.00 0.00 0.00 73
20260905134839 88 209 4.0 7.0 0.00 0.00 0.00 73
20260905134337 88 5 1.0 10.0 0.00 0.00 0.00 74
20260905133832 88 326 1.0 7.0 0.00 0.00 0.00 75
20260905133328 88 77 2.0 7.0 0.00 0.00 0.00 75
20260905132827 88 312 1.0 7.0 0.00 0.00 0.00 74
20260905132323 88 118 2.0 6.0 0.00 0.00 0.00 74
20260905131822 89 253 4.0 8.0 0.00 0.00 0.00 73
20260905131318 88 187 2.0 4.0 0.00 0.00 0.00 75
20260905130813 88 3 3.0 6.0 0.00 0.00 0.00 76
20260905130312 88 332 3.0 7.0 0.00 0.00 0.00 76
20260905125808 87 92 2.0 8.0 0.00 0.00 0.00 78
20260905125305 86 350 1.0 3.0 0.00 0.00 0.00 81
20260905124759 86 319 0.0 3.0 0.00 0.00 0.00 83
20260905124254 85 47 3.0 8.0 0.00 0.00 0.00 84
20260905123749 84 344 0.0 3.0 0.00 0.00 0.00 87
20260905123246 83 88 1.0 4.0 0.00 0.00 0.00 87
20260905122741 83 192 0.0 4.0 0.00 0.00 0.00 87
20260905122239 83 80 1.0 2.0 0.00 0.00 0.00 86
20260905121735 83 78 3.0 3.0 0.00 0.00 0.00 86
20260905121232 83 336 1.0 7.0 0.00 0.00 0.00 86
20260905120730 83 323 2.0 2.0 0.00 0.00 0.00 87
20260905120225 84 345 1.0 2.0 0.00 0.00 0.00 86
20260905115720 84 345 1.0 2.0 0.00 0.00 0.00 86
20260905115219 84 345 1.0 2.0 0.00 0.00 0.00 86
20260905114714 84 335 1.0 1.0 0.00 0.00 0.00 85
20260905114212 84 3 2.0 4.0 0.00 0.00 0.00 84
20260905113706 84 199 2.0 3.0 0.00 0.00 0.00 83
20260905113202 84 292 1.0 3.0 0.00 0.00 0.00 83
20260905112701 84 305 1.0 4.0 0.00 0.00 0.00 82
20260905112157 83 347 0.0 1.0 0.00 0.00 0.00 83
20260905111657 83 348 0.0 2.0 0.00 0.00 0.00 84
20260905111156 83 53 0.0 3.0 0.00 0.00 0.00 84
20260905110656 83 1 1.0 2.0 0.00 0.00 0.00 84
20260905110151 83 343 2.0 2.0 0.00 0.00 0.00 84
20260905105646 83 58 1.0 2.0 0.00 0.00 0.00 84
20260905105145 83 347 1.0 2.0 0.00 0.00 0.00 85
20260905104640 83 313 0.0 2.0 0.00 0.00 0.00 85
20260905104136 83 30 1.0 4.0 0.00 0.00 0.00 84
20260905103631 83 347 2.0 2.0 0.00 0.00 0.00 84
20260905103127 83 86 2.0 3.0 0.00 0.00 0.00 84
20260905102622 83 51 2.0 3.0 0.00 0.00 0.00 84
20260905102119 83 1 2.0 6.0 0.00 0.00 0.00 84
20260905101617 83 4 1.0 4.0 0.00 0.00 0.00 84